This is the latest recevied weather packets stored in our database for station/object KY4EF. If no packets are shown the sender has not sent any weather packets the latest 10 day(s).
| Time | Temp. | Humidity | Pressure | Rain* | Wind** | Luminosity | Snow |
|---|---|---|---|---|---|---|---|
| 1778004766 | 26.11° C | 37% | 1013.8 hPa | 0 mm | - | 514 W/m² | - |
| 1778004462 | 26.11° C | 38% | 1013.9 hPa | 0 mm | - | 519 W/m² | - |
| 1778004159 | 25.56° C | 40% | 1014 hPa | 0 mm | - | 491 W/m² | - |
| 1778003855 | 26.11° C | 38% | 1014 hPa | 0 mm | - | 359 W/m² | - |
| 1778003552 | 25° C | 39% | 1014.1 hPa | 0 mm | - | 301 W/m² | - |
| 1778003249 | 25.56° C | 38% | 1013.8 hPa | 0 mm | - | 536 W/m² | - |
| 1778002946 | 25° C | 40% | 1014 hPa | 0 mm | - | 484 W/m² | - |
| 1778002641 | 26.11° C | 39% | 1013.9 hPa | 0 mm | - | 655 W/m² | - |
| 1778002339 | 24.44° C | 40% | 1013.9 hPa | 0 mm | - | 355 W/m² | - |
| 1778002036 | 23.89° C | 41% | 1014 hPa | 0 mm | - | 655 W/m² | - |
| 1778001732 | 25.56° C | 37% | 1014 hPa | 0 mm | - | 495 W/m² | - |
| 1778001427 | 26.67° C | 38% | 1014.2 hPa | 0 mm | - | 547 W/m² | - |
| 1778001124 | 26.11° C | 40% | 1014.4 hPa | 0 mm | - | 561 W/m² | - |
| 1778000821 | 26.67° C | 37% | 1014.8 hPa | 0 mm | - | 537 W/m² | - |
| 1778000518 | 25.56° C | 37% | 1014.7 hPa | 0 mm | - | 603 W/m² | - |
| 1778000218 | 25° C | 39% | 1014.8 hPa | 0 mm | - | 705 W/m² | - |
| 1777999914 | 26.11° C | 37% | 1014.7 hPa | 0 mm | - | 652 W/m² | - |
| 1777999609 | 26.11° C | 35% | 1014.9 hPa | 0 mm | - | 633 W/m² | - |
| 1777999307 | 23.89° C | 39% | 1015 hPa | 0 mm | - | 668 W/m² | - |
| 1777999005 | 24.44° C | 40% | 1014.6 hPa | 0 mm | - | 438 W/m² | - |
| 1777998703 | 25° C | 40% | 1014.8 hPa | 0 mm | - | 682 W/m² | - |
| 1777998400 | 25.56° C | 39% | 1014.7 hPa | 0 mm | - | 656 W/m² | - |
| 1777998098 | 25.56° C | 37% | 1014.9 hPa | 0 mm | - | 625 W/m² | - |
| 1777997794 | 26.11° C | 36% | 1014.8 hPa | 0 mm | - | 681 W/m² | - |
| 1777997492 | 24.44° C | 37% | 1014.9 hPa | 0 mm | - | 685 W/m² | - |
* Rain latest hour (hover to see other rain measurements)
** Current wind speed in m/s (hover to see current wind gust speed)